Time,TemperatureF,DewpointF,PressureIn,WindDirection,WindDirectionDegrees,WindSpeedMPH,WindSpeedGustMPH,Humidity,HourlyPrecipIn,Conditions,Clouds,dailyrainin,SoftwareType,DateUTC
2013-09-29 00:01:00,59.9,56.7,30.13,West,259,0.0,0.0,89,0.00,,,0.00,VWS V14.01,2013-09-29 04:01:00,
2013-09-29 00:06:00,60.0,56.8,30.13,West,259,0.0,0.0,89,0.00,,,0.00,VWS V14.01,2013-09-29 04:06:00,
2013-09-29 00:11:00,60.0,56.8,30.13,West,259,0.0,0.0,89,0.00,,,0.00,VWS V14.01,2013-09-29 04:11:00,
2013-09-29 00:16:00,60.0,56.8,30.13,WSW,258,0.0,0.0,89,0.00,,,0.00,VWS V14.01,2013-09-29 04:16:00,
2013-09-29 00:21:00,60.0,56.8,30.13,West,259,0.0,0.0,89,0.00,,,0.00,VWS V14.01,2013-09-29 04:21:00,
2013-09-29 00:26:00,60.1,56.8,30.12,WSW,258,0.0,0.0,89,0.00,,,0.00,VWS V14.01,2013-09-29 04:26:00,
2013-09-29 00:31:00,60.1,56.8,30.12,SSE,164,0.0,0.0,89,0.00,,,0.00,VWS V14.01,2013-09-29 04:31:00,
2013-09-29 00:36:00,60.0,56.8,30.13,SSE,164,0.0,0.0,89,0.00,,,0.00,VWS V14.01,2013-09-29 04:36:00,
2013-09-29 00:41:00,60.0,57.1,30.12,SSE,164,0.0,0.0,90,0.00,,,0.00,VWS V14.01,2013-09-29 04:41:00,
2013-09-29 00:46:00,60.0,56.8,30.12,SSE,164,0.0,0.0,89,0.00,,,0.00,VWS V14.01,2013-09-29 04:46:00,
2013-09-29 00:51:00,60.0,56.8,30.13,SSE,164,0.0,0.0,89,0.00,,,0.00,VWS V14.01,2013-09-29 04:51:00,
2013-09-29 00:56:00,60.0,56.8,30.13,SSE,164,0.0,0.0,89,0.00,,,0.00,VWS V14.01,2013-09-29 04:56:00,
2013-09-29 01:01:00,60.0,56.8,30.13,SSE,164,0.0,0.0,89,0.00,,,0.00,VWS V14.01,2013-09-29 05:01:00,
2013-09-29 01:06:00,60.0,57.1,30.13,SSE,164,0.0,0.0,90,0.00,,,0.00,VWS V14.01,2013-09-29 05:06:00,
2013-09-29 01:11:00,60.0,56.8,30.13,SSE,164,0.0,0.0,89,0.00,,,0.00,VWS V14.01,2013-09-29 05:11:00,
2013-09-29 01:16:00,60.0,57.1,30.13,SSE,164,0.0,0.0,90,0.00,,,0.00,VWS V14.01,2013-09-29 05:16:00,
2013-09-29 01:21:00,60.0,57.1,30.13,SSE,164,0.0,0.0,90,0.00,,,0.00,VWS V14.01,2013-09-29 05:21:00,
2013-09-29 01:26:00,60.0,56.8,30.13,SSE,164,0.0,0.0,89,0.00,,,0.00,VWS V14.01,2013-09-29 05:26:00,
2013-09-29 01:31:00,60.0,57.1,30.13,SSE,164,0.0,0.0,90,0.00,,,0.00,VWS V14.01,2013-09-29 05:31:00,
2013-09-29 01:36:00,59.9,57.0,30.13,SSE,164,0.0,0.0,90,0.00,,,0.00,VWS V14.01,2013-09-29 05:36:00,
2013-09-29 01:41:00,59.9,57.0,30.13,SSE,164,0.0,0.0,90,0.00,,,0.00,VWS V14.01,2013-09-29 05:41:00,
2013-09-29 01:46:00,59.8,56.9,30.13,SSE,164,0.0,0.0,90,0.00,,,0.00,VWS V14.01,2013-09-29 05:46:00,
2013-09-29 01:51:00,59.8,56.9,30.13,SSE,164,0.0,0.0,90,0.00,,,0.00,VWS V14.01,2013-09-29 05:51:00,
2013-09-29 01:56:00,59.8,56.9,30.13,SSE,164,0.0,0.0,90,0.00,,,0.00,VWS V14.01,2013-09-29 05:56:00,
2013-09-29 02:01:00,59.9,57.0,30.13,SSE,164,0.0,0.0,90,0.00,,,0.00,VWS V14.01,2013-09-29 06:01:00,
2013-09-29 02:06:00,59.9,57.0,30.13,SSE,164,0.0,0.0,90,0.00,,,0.00,VWS V14.01,2013-09-29 06:06:00,
2013-09-29 02:11:00,59.9,57.0,30.13,SSE,164,0.0,0.0,90,0.00,,,0.00,VWS V14.01,2013-09-29 06:11:00,
2013-09-29 02:16:00,59.9,57.0,30.13,SSE,164,0.0,0.0,90,0.00,,,0.00,VWS V14.01,2013-09-29 06:16:00,
2013-09-29 02:21:00,60.0,57.1,30.13,SSE,164,0.0,0.0,90,0.00,,,0.00,VWS V14.01,2013-09-29 06:21:00,
2013-09-29 02:26:00,60.1,57.2,30.13,SSE,164,0.0,0.0,90,0.00,,,0.00,VWS V14.01,2013-09-29 06:26:00,
2013-09-29 02:31:00,60.2,57.3,30.13,SSE,164,0.0,0.0,90,0.00,,,0.00,VWS V14.01,2013-09-29 06:31:00,
2013-09-29 02:36:00,60.2,57.3,30.13,SSE,164,0.0,0.0,90,0.00,,,0.00,VWS V14.01,2013-09-29 06:36:00,
2013-09-29 02:41:00,60.2,57.3,30.13,SSE,164,0.0,0.0,90,0.00,,,0.00,VWS V14.01,2013-09-29 06:41:00,
2013-09-29 02:46:00,60.2,57.3,30.13,SSE,164,0.0,0.0,90,0.00,,,0.00,VWS V14.01,2013-09-29 06:46:00,
2013-09-29 02:51:00,60.2,57.3,30.13,SSE,160,0.0,0.0,90,0.00,,,0.00,VWS V14.01,2013-09-29 06:51:00,
2013-09-29 02:56:00,60.2,57.3,30.13,SSE,160,0.0,0.0,90,0.00,,,0.00,VWS V14.01,2013-09-29 06:56:00,
2013-09-29 03:01:00,60.2,57.3,30.13,SSE,160,0.0,0.0,90,0.00,,,0.00,VWS V14.01,2013-09-29 07:01:00,
2013-09-29 03:06:00,60.2,57.3,30.13,SSE,154,0.0,0.0,90,0.00,,,0.00,VWS V14.01,2013-09-29 07:06:00,
2013-09-29 03:11:00,60.2,57.6,30.13,ESE,119,0.0,0.0,91,0.00,,,0.00,VWS V14.01,2013-09-29 07:11:00,
2013-09-29 03:16:00,60.1,57.2,30.13,East,101,0.0,0.0,90,0.00,,,0.00,VWS V14.01,2013-09-29 07:16:00,
2013-09-29 03:21:00,60.1,57.5,30.13,East,101,0.0,0.0,91,0.00,,,0.00,VWS V14.01,2013-09-29 07:21:00,
2013-09-29 03:26:00,60.1,57.2,30.13,East,101,0.0,0.0,90,0.00,,,0.00,VWS V14.01,2013-09-29 07:26:00,
2013-09-29 03:31:00,60.1,57.5,30.13,ESE,106,0.0,0.0,91,0.00,,,0.00,VWS V14.01,2013-09-29 07:31:00,
2013-09-29 03:36:00,60.1,57.2,30.13,ESE,106,0.0,0.0,90,0.00,,,0.00,VWS V14.01,2013-09-29 07:36:00,
2013-09-29 03:41:00,60.0,57.1,30.12,ESE,106,0.0,0.0,90,0.00,,,0.00,VWS V14.01,2013-09-29 07:41:00,
2013-09-29 03:46:00,60.0,57.1,30.12,ESE,106,0.0,0.0,90,0.00,,,0.00,VWS V14.01,2013-09-29 07:46:00,
2013-09-29 03:51:00,60.0,57.4,30.12,ESE,106,0.0,0.0,91,0.00,,,0.00,VWS V14.01,2013-09-29 07:51:00,
2013-09-29 03:56:00,59.9,57.0,30.12,ESE,106,0.0,0.0,90,0.00,,,0.00,VWS V14.01,2013-09-29 07:56:00,
2013-09-29 04:01:00,59.9,57.0,30.12,ESE,106,0.0,0.0,90,0.00,,,0.00,VWS V14.01,2013-09-29 08:01:00,
2013-09-29 04:06:00,59.9,57.0,30.12,ESE,106,0.0,0.0,90,0.00,,,0.00,VWS V14.01,2013-09-29 08:06:00,
2013-09-29 04:11:00,59.9,57.0,30.12,ESE,106,0.0,0.0,90,0.00,,,0.00,VWS V14.01,2013-09-29 08:11:00,
2013-09-29 04:16:00,59.9,57.0,30.12,ESE,106,0.0,0.0,90,0.00,,,0.00,VWS V14.01,2013-09-29 08:16:00,
2013-09-29 04:21:00,59.9,57.0,30.12,ESE,106,0.0,0.0,90,0.00,,,0.00,VWS V14.01,2013-09-29 08:21:00,
2013-09-29 04:26:00,59.9,57.0,30.12,ESE,106,0.0,0.0,90,0.00,,,0.00,VWS V14.01,2013-09-29 08:26:00,
2013-09-29 04:31:00,59.9,57.0,30.12,ESE,106,0.0,0.0,90,0.00,,,0.00,VWS V14.01,2013-09-29 08:31:00,
2013-09-29 04:36:00,59.9,57.0,30.12,ESE,106,0.0,0.0,90,0.00,,,0.00,VWS V14.01,2013-09-29 08:36:00,
2013-09-29 04:41:00,60.0,57.1,30.12,ESE,106,0.0,0.0,90,0.00,,,0.00,VWS V14.01,2013-09-29 08:41:00,
2013-09-29 04:46:00,60.0,57.1,30.12,ESE,106,0.0,0.0,90,0.00,,,0.00,VWS V14.01,2013-09-29 08:46:00,
2013-09-29 04:51:00,60.0,57.4,30.12,ESE,106,0.0,0.0,91,0.00,,,0.00,VWS V14.01,2013-09-29 08:51:00,
2013-09-29 04:56:00,60.0,57.1,30.12,ESE,106,0.0,0.0,90,0.00,,,0.00,VWS V14.01,2013-09-29 08:56:00,
2013-09-29 05:01:00,60.0,57.1,30.12,ESE,106,0.0,0.0,90,0.00,,,0.00,VWS V14.01,2013-09-29 09:01:00,
2013-09-29 05:06:00,60.1,57.2,30.12,ESE,106,0.0,0.0,90,0.00,,,0.00,VWS V14.01,2013-09-29 09:06:00,
2013-09-29 05:11:00,60.1,57.2,30.12,ESE,106,0.0,0.0,90,0.00,,,0.00,VWS V14.01,2013-09-29 09:11:00,
2013-09-29 05:16:00,60.1,57.2,30.12,ESE,106,0.0,0.0,90,0.00,,,0.00,VWS V14.01,2013-09-29 09:16:00,
2013-09-29 05:21:00,60.2,57.6,30.13,ESE,106,0.0,0.0,91,0.00,,,0.00,VWS V14.01,2013-09-29 09:21:00,
2013-09-29 05:26:00,60.2,57.6,30.12,ESE,106,0.0,0.0,91,0.00,,,0.00,VWS V14.01,2013-09-29 09:26:00,
2013-09-29 05:31:00,60.2,57.6,30.13,ESE,106,0.0,0.0,91,0.00,,,0.00,VWS V14.01,2013-09-29 09:31:00,
2013-09-29 05:36:00,60.2,57.3,30.13,ESE,106,0.0,0.0,90,0.00,,,0.00,VWS V14.01,2013-09-29 09:36:00,
2013-09-29 05:41:00,60.2,57.6,30.13,ESE,106,0.0,0.0,91,0.00,,,0.00,VWS V14.01,2013-09-29 09:41:00,
2013-09-29 05:46:00,60.2,57.6,30.13,ESE,106,0.0,0.0,91,0.00,,,0.00,VWS V14.01,2013-09-29 09:46:00,
2013-09-29 05:51:00,60.2,57.6,30.13,ESE,106,0.0,0.0,91,0.00,,,0.00,VWS V14.01,2013-09-29 09:51:00,
2013-09-29 05:56:00,60.2,57.6,30.13,ESE,106,0.0,0.0,91,0.00,,,0.00,VWS V14.01,2013-09-29 09:56:00,
2013-09-29 06:01:00,60.2,57.6,30.13,ESE,107,0.0,0.0,91,0.00,,,0.00,VWS V14.01,2013-09-29 10:01:00,
2013-09-29 06:06:00,60.2,57.6,30.13,ESE,107,0.0,0.0,91,0.00,,,0.00,VWS V14.01,2013-09-29 10:06:00,
2013-09-29 06:11:00,60.3,57.7,30.13,ESE,107,0.0,0.0,91,0.00,,,0.00,VWS V14.01,2013-09-29 10:11:00,
2013-09-29 06:16:00,60.3,57.7,30.13,ESE,107,0.0,0.0,91,0.00,,,0.00,VWS V14.01,2013-09-29 10:16:00,
2013-09-29 06:21:00,60.3,57.7,30.13,ESE,107,0.0,0.0,91,0.00,,,0.00,VWS V14.01,2013-09-29 10:21:00,
2013-09-29 06:26:00,60.3,57.7,30.14,ESE,107,0.0,0.0,91,0.00,,,0.00,VWS V14.01,2013-09-29 10:26:00,
2013-09-29 06:31:00,60.2,57.6,30.14,ESE,107,0.0,0.0,91,0.00,,,0.00,VWS V14.01,2013-09-29 10:31:00,
2013-09-29 06:36:00,60.2,57.6,30.14,ESE,107,0.0,0.0,91,0.00,,,0.00,VWS V14.01,2013-09-29 10:36:00,
2013-09-29 06:41:00,60.2,57.6,30.14,ESE,107,0.0,0.0,91,0.00,,,0.00,VWS V14.01,2013-09-29 10:41:00,
2013-09-29 06:46:00,60.2,57.6,30.14,ESE,107,0.0,0.0,91,0.00,,,0.00,VWS V14.01,2013-09-29 10:46:00,
2013-09-29 06:51:00,60.2,57.6,30.14,ESE,107,0.0,0.0,91,0.00,,,0.00,VWS V14.01,2013-09-29 10:51:00,
2013-09-29 06:56:00,60.2,57.6,30.14,ESE,107,0.0,0.0,91,0.00,,,0.00,VWS V14.01,2013-09-29 10:56:00,
2013-09-29 07:01:00,60.2,57.6,30.13,ESE,107,0.0,0.0,91,0.00,,,0.00,VWS V14.01,2013-09-29 11:01:00,
2013-09-29 07:06:00,60.2,57.6,30.14,ESE,107,0.0,0.0,91,0.00,,,0.00,VWS V14.01,2013-09-29 11:06:00,
2013-09-29 07:11:00,60.2,57.6,30.14,ESE,107,0.0,0.0,91,0.00,,,0.00,VWS V14.01,2013-09-29 11:11:00,
2013-09-29 07:16:00,60.2,57.3,30.14,ESE,107,0.0,0.0,90,0.00,,,0.00,VWS V14.01,2013-09-29 11:16:00,
2013-09-29 07:21:00,60.1,57.5,30.15,ESE,107,0.0,0.0,91,0.00,,,0.00,VWS V14.01,2013-09-29 11:21:00,
2013-09-29 07:26:00,60.2,57.6,30.15,ESE,107,0.0,0.0,91,0.00,,,0.00,VWS V14.01,2013-09-29 11:26:00,
2013-09-29 07:31:00,60.2,57.6,30.14,ESE,107,0.0,0.0,91,0.00,,,0.00,VWS V14.01,2013-09-29 11:31:00,
2013-09-29 07:36:00,60.2,57.6,30.14,ESE,107,0.0,0.0,91,0.00,,,0.00,VWS V14.01,2013-09-29 11:36:00,
2013-09-29 07:41:00,60.2,57.3,30.15,ESE,107,0.0,0.0,90,0.00,,,0.00,VWS V14.01,2013-09-29 11:41:00,
2013-09-29 07:46:00,60.2,57.6,30.14,ESE,107,0.0,0.0,91,0.00,,,0.00,VWS V14.01,2013-09-29 11:46:00,
2013-09-29 07:51:00,60.2,57.6,30.14,ESE,107,0.0,0.0,91,0.00,,,0.00,VWS V14.01,2013-09-29 11:51:00,
2013-09-29 07:56:00,60.2,57.6,30.14,ESE,107,0.0,0.0,91,0.00,,,0.00,VWS V14.01,2013-09-29 11:56:00,
2013-09-29 08:01:00,60.2,57.6,30.14,ESE,107,0.0,0.0,91,0.00,,,0.00,VWS V14.01,2013-09-29 12:01:00,
2013-09-29 08:06:00,60.3,57.7,30.14,ESE,107,0.0,0.0,91,0.00,,,0.00,VWS V14.01,2013-09-29 12:06:00,
2013-09-29 08:11:00,60.4,57.8,30.14,ESE,107,0.0,0.0,91,0.00,,,0.00,VWS V14.01,2013-09-29 12:11:00,
2013-09-29 08:16:00,60.5,57.9,30.14,ESE,107,0.0,0.0,91,0.00,,,0.00,VWS V14.01,2013-09-29 12:16:00,
2013-09-29 08:21:00,60.6,58.0,30.15,ESE,107,0.0,0.0,91,0.00,,,0.00,VWS V14.01,2013-09-29 12:21:00,
2013-09-29 08:26:00,60.7,58.1,30.15,ESE,107,0.0,0.0,91,0.00,,,0.00,VWS V14.01,2013-09-29 12:26:00,
2013-09-29 08:31:00,60.7,58.1,30.15,ESE,107,0.0,0.0,91,0.00,,,0.00,VWS V14.01,2013-09-29 12:31:00,
2013-09-29 08:36:00,60.8,58.2,30.15,ESE,107,0.0,0.0,91,0.00,,,0.00,VWS V14.01,2013-09-29 12:36:00,
2013-09-29 08:41:00,60.9,58.3,30.15,ESE,107,0.0,0.0,91,0.00,,,0.00,VWS V14.01,2013-09-29 12:41:00,
2013-09-29 08:46:00,60.9,58.3,30.15,ESE,109,0.0,0.0,91,0.00,,,0.00,VWS V14.01,2013-09-29 12:46:00,
2013-09-29 08:51:00,61.0,58.4,30.15,ESE,109,0.0,0.0,91,0.00,,,0.00,VWS V14.01,2013-09-29 12:51:00,
2013-09-29 08:56:00,60.9,58.3,30.15,ESE,109,0.0,0.0,91,0.00,,,0.00,VWS V14.01,2013-09-29 12:56:00,
2013-09-29 09:01:00,61.1,58.2,30.15,ESE,109,0.0,0.0,90,0.00,,,0.00,VWS V14.01,2013-09-29 13:01:00,
2013-09-29 09:06:00,61.3,58.7,30.15,ESE,109,0.0,0.0,91,0.00,,,0.00,VWS V14.01,2013-09-29 13:06:00,
2013-09-29 09:11:00,61.4,58.8,30.14,ESE,113,0.0,0.0,91,0.00,,,0.00,VWS V14.01,2013-09-29 13:11:00,
2013-09-29 09:16:00,61.5,58.5,30.15,SE,132,0.0,0.0,90,0.00,,,0.00,VWS V14.01,2013-09-29 13:16:00,
2013-09-29 09:21:00,61.4,58.5,30.14,SE,132,0.0,0.0,90,0.00,,,0.00,VWS V14.01,2013-09-29 13:21:00,
2013-09-29 09:26:00,61.4,58.5,30.14,SE,129,0.0,0.0,90,0.00,,,0.00,VWS V14.01,2013-09-29 13:26:00,
2013-09-29 09:31:00,61.6,58.3,30.14,SE,129,0.0,0.0,89,0.00,,,0.00,VWS V14.01,2013-09-29 13:31:00,
2013-09-29 09:36:00,61.8,58.5,30.14,SE,129,0.0,0.0,89,0.00,,,0.00,VWS V14.01,2013-09-29 13:36:00,
2013-09-29 09:41:00,62.0,58.7,30.14,SE,132,0.0,0.0,89,0.00,,,0.00,VWS V14.01,2013-09-29 13:41:00,
2013-09-29 09:46:00,62.1,58.5,30.14,SE,133,0.0,0.0,88,0.00,,,0.00,VWS V14.01,2013-09-29 13:46:00,
2013-09-29 09:51:00,62.3,58.4,30.15,WSW,255,0.0,0.0,87,0.00,,,0.00,VWS V14.01,2013-09-29 13:51:00,
2013-09-29 09:56:00,62.4,58.5,30.15,WSW,255,0.0,0.0,87,0.00,,,0.00,VWS V14.01,2013-09-29 13:56:00,
2013-09-29 10:01:00,62.5,58.3,30.15,WSW,254,0.0,0.0,86,0.00,,,0.00,VWS V14.01,2013-09-29 14:01:00,
2013-09-29 10:07:00,62.8,58.6,30.15,WSW,254,0.0,0.0,86,0.00,,,0.00,VWS V14.01,2013-09-29 14:07:00,
2013-09-29 10:12:00,63.0,58.4,30.15,SW,232,0.0,0.0,85,0.00,,,0.00,VWS V14.01,2013-09-29 14:12:00,
2013-09-29 10:17:00,63.2,58.6,30.15,SSW,192,0.0,0.0,85,0.00,,,0.00,VWS V14.01,2013-09-29 14:17:00,
2013-09-29 10:22:00,63.3,58.4,30.15,SSW,192,0.0,0.0,84,0.00,,,0.00,VWS V14.01,2013-09-29 14:22:00,
2013-09-29 10:27:00,63.2,57.3,30.15,WSW,256,0.0,0.0,81,0.00,,,0.00,VWS V14.01,2013-09-29 14:27:00,
2013-09-29 10:32:00,63.2,57.3,30.15,WSW,256,0.0,0.0,81,0.00,,,0.00,VWS V14.01,2013-09-29 14:32:00,
2013-09-29 10:37:00,63.2,57.6,30.15,WSW,256,0.0,0.0,82,0.00,,,0.00,VWS V14.01,2013-09-29 14:37:00,
2013-09-29 10:42:00,63.3,57.4,30.15,WSW,256,0.0,0.0,81,0.00,,,0.00,VWS V14.01,2013-09-29 14:42:00,
2013-09-29 10:47:00,63.3,57.0,30.15,WSW,256,0.0,0.0,80,0.00,,,0.00,VWS V14.01,2013-09-29 14:47:00,
2013-09-29 10:52:00,63.3,56.7,30.15,WSW,256,0.0,0.0,79,0.00,,,0.00,VWS V14.01,2013-09-29 14:52:00,
2013-09-29 10:57:00,63.3,57.0,30.15,WSW,256,0.0,0.0,80,0.00,,,0.00,VWS V14.01,2013-09-29 14:57:00,
2013-09-29 11:02:00,63.4,57.1,30.15,WSW,256,0.0,0.0,80,0.00,,,0.00,VWS V14.01,2013-09-29 15:02:00,
2013-09-29 11:07:00,63.4,57.1,30.15,SW,228,0.0,0.0,80,0.00,,,0.00,VWS V14.01,2013-09-29 15:07:00,
2013-09-29 11:12:00,63.5,57.2,30.15,SW,235,0.0,0.0,80,0.00,,,0.00,VWS V14.01,2013-09-29 15:12:00,
2013-09-29 11:17:00,63.7,57.8,30.15,WSW,241,0.0,0.0,81,0.00,,,0.00,VWS V14.01,2013-09-29 15:17:00,
2013-09-29 11:22:00,63.9,57.6,30.15,WSW,240,0.0,0.0,80,0.00,,,0.00,VWS V14.01,2013-09-29 15:22:00,
2013-09-29 11:27:00,64.1,57.8,30.15,WSW,240,0.0,0.0,80,0.00,,,0.00,VWS V14.01,2013-09-29 15:27:00,
2013-09-29 11:32:00,64.0,57.4,30.15,WSW,240,0.0,0.0,79,0.00,,,0.00,VWS V14.01,2013-09-29 15:32:00,
2013-09-29 11:37:00,64.0,57.0,30.15,WSW,240,0.0,0.0,78,0.00,,,0.00,VWS V14.01,2013-09-29 15:37:00,
2013-09-29 11:42:00,64.4,58.1,30.16,WSW,240,0.0,0.0,80,0.00,,,0.00,VWS V14.01,2013-09-29 15:42:00,
2013-09-29 11:47:00,64.5,57.8,30.16,WSW,240,0.0,0.0,79,0.00,,,0.00,VWS V14.01,2013-09-29 15:47:00,
2013-09-29 11:52:00,64.5,57.1,30.16,SSW,204,0.0,0.0,77,0.00,,,0.00,VWS V14.01,2013-09-29 15:52:00,
2013-09-29 11:57:00,64.5,57.1,30.16,South,181,0.0,0.0,77,0.00,,,0.00,VWS V14.01,2013-09-29 15:57:00,
2013-09-29 12:02:00,64.6,57.6,30.16,South,189,0.0,0.0,78,0.00,,,0.00,VWS V14.01,2013-09-29 16:02:00,
2013-09-29 12:07:00,64.7,57.0,30.16,SSW,192,0.0,0.0,76,0.00,,,0.00,VWS V14.01,2013-09-29 16:07:00,
2013-09-29 12:12:00,64.8,56.3,30.15,South,184,0.0,0.0,74,0.00,,,0.00,VWS V14.01,2013-09-29 16:12:00,
2013-09-29 12:17:00,64.9,57.2,30.15,WSW,250,0.0,0.0,76,0.00,,,0.00,VWS V14.01,2013-09-29 16:17:00,
2013-09-29 12:22:00,65.1,57.0,30.15,SSW,200,0.0,0.0,75,0.00,,,0.00,VWS V14.01,2013-09-29 16:22:00,
2013-09-29 12:27:00,65.4,57.3,30.15,SSW,200,0.0,0.0,75,0.00,,,0.00,VWS V14.01,2013-09-29 16:27:00,
2013-09-29 12:32:00,65.5,57.0,30.15,SSW,192,0.0,0.0,74,0.00,,,0.00,VWS V14.01,2013-09-29 16:32:00,
2013-09-29 12:37:00,65.7,57.2,30.15,SSW,192,0.0,0.0,74,0.00,,,0.00,VWS V14.01,2013-09-29 16:37:00,
2013-09-29 12:42:00,65.7,57.9,30.15,South,189,0.0,0.0,76,0.00,,,0.00,VWS V14.01,2013-09-29 16:42:00,
2013-09-29 12:47:00,66.2,59.5,30.15,South,183,0.0,0.0,79,0.00,,,0.00,VWS V14.01,2013-09-29 16:47:00,
2013-09-29 12:52:00,66.5,58.7,30.14,South,187,0.0,0.0,76,0.00,,,0.00,VWS V14.01,2013-09-29 16:52:00,
2013-09-29 12:57:00,66.4,57.5,30.14,South,187,0.0,0.0,73,0.00,,,0.00,VWS V14.01,2013-09-29 16:57:00,
2013-09-29 13:02:00,66.3,57.8,30.14,South,188,0.0,0.0,74,0.00,,,0.00,VWS V14.01,2013-09-29 17:02:00,
2013-09-29 13:07:00,66.3,57.8,30.14,SE,131,0.0,0.0,74,0.00,,,0.00,VWS V14.01,2013-09-29 17:07:00,
2013-09-29 13:12:00,66.1,57.2,30.13,East,95,0.0,0.0,73,0.00,,,0.00,VWS V14.01,2013-09-29 17:12:00,
2013-09-29 13:17:00,66.0,57.5,30.13,East,100,0.0,0.0,74,0.00,,,0.00,VWS V14.01,2013-09-29 17:17:00,
2013-09-29 13:22:00,66.1,58.0,30.13,ENE,69,0.0,0.0,75,0.00,,,0.00,VWS V14.01,2013-09-29 17:22:00,
2013-09-29 13:27:00,66.4,58.2,30.12,East,93,0.0,0.0,75,0.00,,,0.00,VWS V14.01,2013-09-29 17:27:00,
2013-09-29 13:32:00,66.6,58.1,30.12,ESE,119,0.0,0.0,74,0.00,,,0.00,VWS V14.01,2013-09-29 17:32:00,
2013-09-29 13:37:00,66.7,58.2,30.12,ESE,102,0.0,0.0,74,0.00,,,0.00,VWS V14.01,2013-09-29 17:37:00,
2013-09-29 13:42:00,66.9,58.3,30.12,East,95,0.0,0.0,74,0.00,,,0.00,VWS V14.01,2013-09-29 17:42:00,
2013-09-29 13:47:00,67.2,59.0,30.11,ENE,72,0.0,0.0,75,0.00,,,0.00,VWS V14.01,2013-09-29 17:47:00,
2013-09-29 13:52:00,67.4,58.8,30.11,ENE,63,0.0,0.0,74,0.00,,,0.00,VWS V14.01,2013-09-29 17:52:00,
2013-09-29 13:57:00,67.5,58.5,30.11,ENE,59,0.0,0.0,73,0.00,,,0.00,VWS V14.01,2013-09-29 17:57:00,
2013-09-29 14:02:00,67.5,58.5,30.11,ENE,61,0.0,0.0,73,0.00,,,0.00,VWS V14.01,2013-09-29 18:02:00,
2013-09-29 14:07:00,67.3,58.4,30.11,East,83,0.0,0.0,73,0.00,,,0.00,VWS V14.01,2013-09-29 18:07:00,
2013-09-29 14:12:00,67.3,58.7,30.10,ENE,66,0.0,0.0,74,0.00,,,0.00,VWS V14.01,2013-09-29 18:12:00,
2013-09-29 14:17:00,67.4,58.8,30.10,East,88,0.0,0.0,74,0.00,,,0.00,VWS V14.01,2013-09-29 18:17:00,
2013-09-29 14:22:00,67.5,58.9,30.10,ENE,75,0.0,0.0,74,0.00,,,0.00,VWS V14.01,2013-09-29 18:22:00,
2013-09-29 14:27:00,67.8,59.2,30.09,ENE,59,0.0,0.0,74,0.00,,,0.00,VWS V14.01,2013-09-29 18:27:00,
2013-09-29 14:32:00,68.2,58.8,30.09,WSW,249,0.0,0.0,72,0.00,,,0.00,VWS V14.01,2013-09-29 18:32:00,
2013-09-29 14:37:00,68.4,58.6,30.09,ESE,104,0.0,0.0,71,0.00,,,0.00,VWS V14.01,2013-09-29 18:37:00,
2013-09-29 14:42:00,68.5,58.7,30.09,East,94,0.0,0.0,71,0.00,,,0.00,VWS V14.01,2013-09-29 18:42:00,
2013-09-29 14:47:00,68.5,58.3,30.08,East,82,0.0,0.0,70,0.00,,,0.00,VWS V14.01,2013-09-29 18:47:00,
2013-09-29 14:52:00,68.7,58.9,30.08,East,84,0.0,0.0,71,0.00,,,0.00,VWS V14.01,2013-09-29 18:52:00,
2013-09-29 14:57:00,68.8,59.4,30.08,East,95,0.0,0.0,72,0.00,,,0.00,VWS V14.01,2013-09-29 18:57:00,
2013-09-29 15:02:00,68.8,58.6,30.08,ENE,68,0.0,0.0,70,0.00,,,0.00,VWS V14.01,2013-09-29 19:02:00,
2013-09-29 15:07:00,68.8,59.4,30.08,ENE,77,0.0,0.0,72,0.00,,,0.00,VWS V14.01,2013-09-29 19:07:00,
2013-09-29 15:12:00,68.9,59.1,30.08,East,87,0.0,0.0,71,0.00,,,0.00,VWS V14.01,2013-09-29 19:12:00,
2013-09-29 15:17:00,68.9,58.7,30.08,East,94,0.0,0.0,70,0.00,,,0.00,VWS V14.01,2013-09-29 19:17:00,
2013-09-29 15:22:00,68.9,58.3,30.08,East,94,0.0,0.0,69,0.00,,,0.00,VWS V14.01,2013-09-29 19:22:00,
2013-09-29 15:27:00,68.8,58.6,30.08,ESE,103,0.0,0.0,70,0.00,,,0.00,VWS V14.01,2013-09-29 19:27:00,
2013-09-29 15:32:00,68.8,59.0,30.07,East,84,0.0,0.0,71,0.00,,,0.00,VWS V14.01,2013-09-29 19:32:00,
2013-09-29 15:37:00,68.9,58.3,30.07,East,84,0.0,0.0,69,0.00,,,0.00,VWS V14.01,2013-09-29 19:37:00,
2013-09-29 15:42:00,68.8,57.8,30.07,East,84,0.0,0.0,68,0.00,,,0.00,VWS V14.01,2013-09-29 19:42:00,
2013-09-29 15:47:00,68.7,58.1,30.07,East,84,0.0,0.0,69,0.00,,,0.00,VWS V14.01,2013-09-29 19:47:00,
2013-09-29 15:48:00,68.7,58.5,30.07,East,90,0.0,0.0,70,0.00,,,0.00,VWS V14.01,2013-09-29 19:48:00,
2013-09-29 15:53:00,68.8,59.0,30.06,SE,127,0.0,0.0,71,0.00,,,0.00,VWS V14.01,2013-09-29 19:53:00,
2013-09-29 15:58:00,69.0,58.8,30.06,SE,136,0.0,0.0,70,0.00,,,0.00,VWS V14.01,2013-09-29 19:58:00,
2013-09-29 16:03:00,69.2,58.2,30.06,SE,136,0.0,0.0,68,0.00,,,0.00,VWS V14.01,2013-09-29 20:03:00,
2013-09-29 16:08:00,69.4,59.2,30.06,SE,136,0.0,0.0,70,0.00,,,0.00,VWS V14.01,2013-09-29 20:08:00,
2013-09-29 16:13:00,69.5,58.5,30.06,SSE,149,0.0,0.0,68,0.00,,,0.00,VWS V14.01,2013-09-29 20:13:00,
2013-09-29 16:18:00,69.4,58.4,30.06,East,92,0.0,0.0,68,0.00,,,0.00,VWS V14.01,2013-09-29 20:18:00,
2013-09-29 16:23:00,69.4,58.4,30.06,ESE,104,0.0,0.0,68,0.00,,,0.00,VWS V14.01,2013-09-29 20:23:00,
2013-09-29 16:28:00,69.4,58.8,30.06,ESE,107,0.0,0.0,69,0.00,,,0.00,VWS V14.01,2013-09-29 20:28:00,
2013-09-29 16:33:00,69.3,58.3,30.06,ESE,111,0.0,0.0,68,0.00,,,0.00,VWS V14.01,2013-09-29 20:33:00,
2013-09-29 16:38:00,69.2,58.2,30.06,ENE,69,0.0,0.0,68,0.00,,,0.00,VWS V14.01,2013-09-29 20:38:00,
2013-09-29 16:43:00,69.1,57.7,30.06,East,79,0.0,0.0,67,0.00,,,0.00,VWS V14.01,2013-09-29 20:43:00,
2013-09-29 16:48:00,69.0,57.2,30.06,East,80,0.0,0.0,66,0.00,,,0.00,VWS V14.01,2013-09-29 20:48:00,
2013-09-29 16:53:00,69.0,58.0,30.06,East,80,0.0,0.0,68,0.00,,,0.00,VWS V14.01,2013-09-29 20:53:00,
2013-09-29 16:58:00,69.0,57.2,30.06,ESE,102,0.0,0.0,66,0.00,,,0.00,VWS V14.01,2013-09-29 20:58:00,
2013-09-29 17:03:00,69.0,58.0,30.06,ESE,103,0.0,0.0,68,0.00,,,0.00,VWS V14.01,2013-09-29 21:03:00,
2013-09-29 17:08:00,69.0,57.6,30.06,East,86,0.0,0.0,67,0.00,,,0.00,VWS V14.01,2013-09-29 21:08:00,
2013-09-29 17:13:00,68.9,57.5,30.06,East,89,0.0,0.0,67,0.00,,,0.00,VWS V14.01,2013-09-29 21:13:00,
2013-09-29 17:18:00,68.9,57.5,30.06,East,90,0.0,0.0,67,0.00,,,0.00,VWS V14.01,2013-09-29 21:18:00,
2013-09-29 17:23:00,68.8,57.4,30.06,East,100,0.0,0.0,67,0.00,,,0.00,VWS V14.01,2013-09-29 21:23:00,
2013-09-29 17:28:00,68.8,57.8,30.06,East,101,0.0,0.0,68,0.00,,,0.00,VWS V14.01,2013-09-29 21:28:00,
2013-09-29 17:33:00,68.7,57.7,30.06,ESE,115,0.0,0.0,68,0.00,,,0.00,VWS V14.01,2013-09-29 21:33:00,
2013-09-29 17:38:00,68.7,58.1,30.06,ESE,115,0.0,0.0,69,0.00,,,0.00,VWS V14.01,2013-09-29 21:38:00,
2013-09-29 17:43:00,68.7,58.1,30.06,SE,131,0.0,0.0,69,0.00,,,0.00,VWS V14.01,2013-09-29 21:43:00,
2013-09-29 17:48:00,68.6,56.8,30.06,SE,135,0.0,0.0,66,0.00,,,0.00,VWS V14.01,2013-09-29 21:48:00,
2013-09-29 17:53:00,68.6,58.4,30.06,SE,136,0.0,0.0,70,0.00,,,0.00,VWS V14.01,2013-09-29 21:53:00,
2013-09-29 17:58:00,68.5,59.1,30.06,SSE,159,0.0,0.0,72,0.00,,,0.00,VWS V14.01,2013-09-29 21:58:00,
2013-09-29 18:03:00,68.4,58.2,30.06,SSE,150,0.0,0.0,70,0.00,,,0.00,VWS V14.01,2013-09-29 22:03:00,
2013-09-29 18:08:00,68.3,57.8,30.06,SSE,153,0.0,0.0,69,0.00,,,0.00,VWS V14.01,2013-09-29 22:08:00,
2013-09-29 18:13:00,68.2,58.8,30.05,SE,133,0.0,0.0,72,0.00,,,0.00,VWS V14.01,2013-09-29 22:13:00,
2013-09-29 18:18:00,68.0,58.7,30.05,SE,139,0.0,0.0,72,0.00,,,0.00,VWS V14.01,2013-09-29 22:18:00,
2013-09-29 18:23:00,67.9,58.2,30.05,SE,145,0.0,0.0,71,0.00,,,0.00,VWS V14.01,2013-09-29 22:23:00,
2013-09-29 18:28:00,67.7,58.4,30.05,SE,136,0.0,0.0,72,0.00,,,0.00,VWS V14.01,2013-09-29 22:28:00,
2013-09-29 18:33:00,67.5,58.9,30.05,SE,136,0.0,0.0,74,0.00,,,0.00,VWS V14.01,2013-09-29 22:33:00,
2013-09-29 18:38:00,67.4,58.8,30.05,ESE,116,0.0,0.0,74,0.00,,,0.00,VWS V14.01,2013-09-29 22:38:00,
2013-09-29 18:43:00,67.1,58.9,30.05,ESE,116,0.0,0.0,75,0.00,,,0.00,VWS V14.01,2013-09-29 22:43:00,
2013-09-29 18:48:00,66.9,58.7,30.05,ESE,116,0.0,0.0,75,0.00,,,0.00,VWS V14.01,2013-09-29 22:48:00,
2013-09-29 18:53:00,66.8,58.6,30.05,ESE,116,0.0,0.0,75,0.00,,,0.00,VWS V14.01,2013-09-29 22:53:00,
2013-09-29 18:58:00,66.7,58.9,30.05,ESE,116,0.0,0.0,76,0.00,,,0.00,VWS V14.01,2013-09-29 22:58:00,
2013-09-29 19:03:00,66.6,58.8,30.05,ESE,117,0.0,0.0,76,0.00,,,0.00,VWS V14.01,2013-09-29 23:03:00,
2013-09-29 19:08:00,66.5,58.7,30.04,ESE,117,0.0,0.0,76,0.00,,,0.00,VWS V14.01,2013-09-29 23:08:00,
2013-09-29 19:13:00,66.4,58.6,30.04,ESE,117,0.0,0.0,76,0.00,,,0.00,VWS V14.01,2013-09-29 23:13:00,
2013-09-29 19:18:00,66.3,58.9,30.04,ESE,117,0.0,0.0,77,0.00,,,0.00,VWS V14.01,2013-09-29 23:18:00,
2013-09-29 19:23:00,66.1,58.7,30.04,SE,128,0.0,0.0,77,0.00,,,0.00,VWS V14.01,2013-09-29 23:23:00,
2013-09-29 19:28:00,65.9,58.9,30.04,SE,128,0.0,0.0,78,0.00,,,0.00,VWS V14.01,2013-09-29 23:28:00,
2013-09-29 19:33:00,65.6,58.6,30.05,SE,128,0.0,0.0,78,0.00,,,0.00,VWS V14.01,2013-09-29 23:33:00,
2013-09-29 19:38:00,65.5,58.8,30.04,SE,129,0.0,0.0,79,0.00,,,0.00,VWS V14.01,2013-09-29 23:38:00,
2013-09-29 19:43:00,65.1,58.8,30.03,SE,129,0.0,0.0,80,0.00,,,0.00,VWS V14.01,2013-09-29 23:43:00,
2013-09-29 19:48:00,64.7,58.7,30.04,SE,129,0.0,0.0,81,0.00,,,0.00,VWS V14.01,2013-09-29 23:48:00,
2013-09-29 19:53:00,64.5,58.9,30.04,SE,129,0.0,0.0,82,0.00,,,0.00,VWS V14.01,2013-09-29 23:53:00,
2013-09-29 19:58:00,64.3,58.7,30.04,SE,129,0.0,0.0,82,0.00,,,0.00,VWS V14.01,2013-09-29 23:58:00,
2013-09-29 20:03:00,64.3,58.7,30.04,SE,129,0.0,0.0,82,0.00,,,0.00,VWS V14.01,2013-09-30 00:03:00,
2013-09-29 20:08:00,64.2,58.9,30.04,SE,129,0.0,0.0,83,0.00,,,0.00,VWS V14.01,2013-09-30 00:08:00,
2013-09-29 20:13:00,64.1,58.8,30.03,SSE,151,0.0,0.0,83,0.00,,,0.00,VWS V14.01,2013-09-30 00:13:00,
2013-09-29 20:18:00,64.0,58.7,30.03,SSE,151,0.0,0.0,83,0.00,,,0.00,VWS V14.01,2013-09-30 00:18:00,
2013-09-29 20:23:00,63.9,58.6,30.03,SSE,151,0.0,0.0,83,0.00,,,0.00,VWS V14.01,2013-09-30 00:23:00,
2013-09-29 20:28:00,63.7,58.5,30.03,SE,145,0.0,0.0,83,0.00,,,0.00,VWS V14.01,2013-09-30 00:28:00,
2013-09-29 20:33:00,63.6,58.7,30.02,SE,145,0.0,0.0,84,0.00,,,0.00,VWS V14.01,2013-09-30 00:33:00,
2013-09-29 20:38:00,63.4,58.8,30.03,SE,145,0.0,0.0,85,0.00,,,0.00,VWS V14.01,2013-09-30 00:38:00,
2013-09-29 20:43:00,63.2,58.6,30.03,SE,145,0.0,0.0,85,0.00,,,0.00,VWS V14.01,2013-09-30 00:43:00,
2013-09-29 20:48:00,63.2,58.6,30.02,SE,145,0.0,0.0,85,0.00,,,0.00,VWS V14.01,2013-09-30 00:48:00,
2013-09-29 20:53:00,63.0,58.8,30.03,SE,145,0.0,0.0,86,0.00,,,0.00,VWS V14.01,2013-09-30 00:53:00,
2013-09-29 20:58:00,63.0,58.8,30.03,SE,145,0.0,0.0,86,0.00,,,0.00,VWS V14.01,2013-09-30 00:58:00,
2013-09-29 21:03:00,62.9,58.3,30.03,SE,145,0.0,0.0,85,0.00,,,0.00,VWS V14.01,2013-09-30 01:03:00,
2013-09-29 21:08:00,62.8,58.6,30.03,SE,146,0.0,0.0,86,0.00,,,0.00,VWS V14.01,2013-09-30 01:08:00,
2013-09-29 21:13:00,62.7,58.5,30.03,SE,145,0.0,0.0,86,0.00,,,0.00,VWS V14.01,2013-09-30 01:13:00,
2013-09-29 21:18:00,62.7,58.5,30.03,SE,144,0.0,0.0,86,0.00,,,0.00,VWS V14.01,2013-09-30 01:18:00,
2013-09-29 21:23:00,62.6,58.4,30.03,SE,144,0.0,0.0,86,0.00,,,0.00,VWS V14.01,2013-09-30 01:23:00,
2013-09-29 21:28:00,62.6,58.4,30.03,SE,144,0.0,0.0,86,0.00,,,0.00,VWS V14.01,2013-09-30 01:28:00,
2013-09-29 21:33:00,62.6,58.4,30.04,SE,144,0.0,0.0,86,0.00,,,0.00,VWS V14.01,2013-09-30 01:33:00,
2013-09-29 21:38:00,62.5,58.3,30.04,SE,144,0.0,0.0,86,0.00,,,0.00,VWS V14.01,2013-09-30 01:38:00,
2013-09-29 21:43:00,62.4,58.5,30.04,SE,144,0.0,0.0,87,0.00,,,0.00,VWS V14.01,2013-09-30 01:43:00,
2013-09-29 21:48:00,62.3,58.4,30.04,SE,144,0.0,0.0,87,0.00,,,0.00,VWS V14.01,2013-09-30 01:48:00,
2013-09-29 21:53:00,62.2,58.3,30.04,SE,144,0.0,0.0,87,0.00,,,0.00,VWS V14.01,2013-09-30 01:53:00,
2013-09-29 21:58:00,62.1,58.2,30.04,SE,144,0.0,0.0,87,0.00,,,0.00,VWS V14.01,2013-09-30 01:58:00,
2013-09-29 22:03:00,62.0,58.1,30.05,SE,143,0.0,0.0,87,0.00,,,0.00,VWS V14.01,2013-09-30 02:03:00,
2013-09-29 22:08:00,61.9,58.0,30.04,SE,143,0.0,0.0,87,0.00,,,0.00,VWS V14.01,2013-09-30 02:08:00,
2013-09-29 22:13:00,61.9,58.0,30.05,SE,143,0.0,0.0,87,0.00,,,0.00,VWS V14.01,2013-09-30 02:13:00,
2013-09-29 22:18:00,61.9,58.3,30.05,SE,142,0.0,0.0,88,0.00,,,0.00,VWS V14.01,2013-09-30 02:18:00,
2013-09-29 22:23:00,61.9,58.3,30.06,SW,225,0.0,0.0,88,0.00,,,0.00,VWS V14.01,2013-09-30 02:23:00,
2013-09-29 22:28:00,61.8,58.2,30.06,SW,225,0.0,0.0,88,0.00,,,0.00,VWS V14.01,2013-09-30 02:28:00,
2013-09-29 22:33:00,61.8,58.2,30.06,West,267,0.0,0.0,88,0.00,,,0.00,VWS V14.01,2013-09-30 02:33:00,
2013-09-29 22:38:00,61.7,58.1,30.06,WNW,282,0.0,0.0,88,0.00,,,0.00,VWS V14.01,2013-09-30 02:38:00,
2013-09-29 22:43:00,61.7,58.1,30.06,WNW,282,0.0,0.0,88,0.00,,,0.00,VWS V14.01,2013-09-30 02:43:00,
2013-09-29 22:48:00,61.7,58.1,30.07,WNW,282,0.0,0.0,88,0.00,,,0.00,VWS V14.01,2013-09-30 02:48:00,
2013-09-29 22:53:00,61.8,58.2,30.07,WNW,282,0.0,0.0,88,0.00,,,0.00,VWS V14.01,2013-09-30 02:53:00,
2013-09-29 22:58:00,61.8,58.2,30.07,WNW,282,0.0,0.0,88,0.00,,,0.00,VWS V14.01,2013-09-30 02:58:00,
2013-09-29 23:03:00,61.8,58.2,30.07,WNW,282,0.0,0.0,88,0.00,,,0.00,VWS V14.01,2013-09-30 03:03:00,
2013-09-29 23:08:00,61.8,58.2,30.07,WNW,282,0.0,0.0,88,0.00,,,0.00,VWS V14.01,2013-09-30 03:08:00,
2013-09-29 23:13:00,61.7,58.1,30.07,West,281,0.0,0.0,88,0.00,,,0.00,VWS V14.01,2013-09-30 03:13:00,
2013-09-29 23:18:00,61.6,58.0,30.06,WNW,282,0.0,0.0,88,0.00,,,0.00,VWS V14.01,2013-09-30 03:18:00,
2013-09-29 23:23:00,61.5,58.2,30.06,ESE,109,0.0,0.0,89,0.00,,,0.00,VWS V14.01,2013-09-30 03:23:00,
2013-09-29 23:28:00,61.4,58.1,30.06,ESE,109,0.0,0.0,89,0.00,,,0.00,VWS V14.01,2013-09-30 03:28:00,
2013-09-29 23:33:00,61.3,58.0,30.07,ESE,109,0.0,0.0,89,0.00,,,0.00,VWS V14.01,2013-09-30 03:33:00,
2013-09-29 23:38:00,61.3,58.0,30.06,ESE,109,0.0,0.0,89,0.00,,,0.00,VWS V14.01,2013-09-30 03:38:00,
2013-09-29 23:43:00,61.2,57.9,30.07,SE,129,0.0,0.0,89,0.00,,,0.00,VWS V14.01,2013-09-30 03:43:00,
2013-09-29 23:48:00,61.1,57.8,30.07,SE,129,0.0,0.0,89,0.00,,,0.00,VWS V14.01,2013-09-30 03:48:00,
2013-09-29 23:53:00,60.9,57.6,30.07,SE,129,0.0,0.0,89,0.00,,,0.00,VWS V14.01,2013-09-30 03:53:00,
2013-09-29 23:58:00,60.8,57.5,30.07,SE,129,0.0,0.0,89,0.00,,,0.00,VWS V14.01,2013-09-30 03:58:00,